Tracking 18945 objects as of 19-Jan-2018
HD Live streaming from Space Station
objects crossing your sky now

FENGYUN 1C DEB

Track FENGYUN 1C DEB now!
10-day predictions


NORAD ID: 36656
Int'l Code: 1999-025DYA
Perigee: 823.1 km
Apogee: 1,340.2 km
Inclination: 97.4 °
Period: 106.7 minutes
Semi major axis: 7452 km
RCS: 0.0103 m2 (small)
Launch date: May 10, 1999
Source: People's Republic of China (PRC)
Launch site: Taiyaun Space Center, China (TSC)

Note: This is SATELLITE DEBRIS
aabbcc
Your satellite tracking list
Your tracking list is empty




NASA's NSSDC Master Catalog

Two Line Element Set (TLE):
1 36656U 99025DYA 18013.50249378  .00000341  00000-0  40646-3 0  9993
2 36656  97.4373 113.1907 0346908 291.5054  64.9438 13.49385130503514
Source of the keplerian elements: AFSPC